| time (UTC) | temp F | wind direction | speed knots | gust knots | rain 1hr in | rain 24hr in | rain mn in | humidity % | barometer mb |
| 20260503214029 | 64 | 194 | 10.4 | 14.8 | 0.00 | 0.01 | 0.01 | 51 | 1008.2 |
| 20260503213527 | 64 | 152 | 11.3 | 15.6 | 0.00 | 0.01 | 0.01 | 50 | 1008.5 |
| 20260503213024 | 64 | 223 | 7.0 | 8.7 | 0.00 | 0.01 | 0.01 | 50 | 1008.5 |
| 20260503212521 | 65 | 191 | 6.1 | 7.8 | 0.00 | 0.01 | 0.01 | 49 | 1008.5 |
| 20260503212019 | 65 | 184 | 12.2 | 20.0 | 0.00 | 0.01 | 0.01 | 48 | 1008.5 |
| 20260503211515 | 64 | 193 | 9.6 | 13.0 | 0.00 | 0.01 | 0.01 | 48 | 1008.5 |
| 20260503211011 | 64 | 195 | 14.8 | 17.4 | 0.00 | 0.01 | 0.01 | 48 | 1008.5 |
| 20260503210508 | 63 | 168 | 8.7 | 14.8 | 0.00 | 0.01 | 0.01 | 49 | 1008.5 |
| 20260503210003 | 64 | 208 | 12.2 | 17.4 | 0.00 | 0.01 | 0.01 | 49 | 1008.8 |
| 20260503205500 | 64 | 247 | 11.3 | 20.9 | 0.00 | 0.01 | 0.01 | 48 | 1008.8 |
| 20260503204956 | 64 | 183 | 6.1 | 7.8 | 0.00 | 0.01 | 0.01 | 47 | 1009.2 |
| 20260503204454 | 65 | 155 | 12.2 | 15.6 | 0.00 | 0.01 | 0.01 | 47 | 1009.2 |
| 20260503203950 | 64 | 194 | 14.8 | 20.0 | 0.00 | 0.01 | 0.01 | 47 | 1009.2 |
| 20260503203448 | 64 | 194 | 10.4 | 18.2 | 0.00 | 0.01 | 0.01 | 46 | 1009.2 |
| 20260503202944 | 64 | 146 | 11.3 | 15.6 | 0.00 | 0.01 | 0.01 | 45 | 1009.5 |
| 20260503202443 | 64 | 187 | 9.6 | 14.8 | 0.00 | 0.01 | 0.01 | 46 | 1009.2 |
| 20260503201941 | 63 | 210 | 13.0 | 17.4 | 0.00 | 0.01 | 0.01 | 47 | 1009.5 |
| 20260503201438 | 63 | 190 | 9.6 | 13.9 | 0.00 | 0.01 | 0.01 | 47 | 1009.5 |
| 20260503200935 | 63 | 166 | 17.4 | 20.9 | 0.00 | 0.01 | 0.01 | 45 | 1009.9 |
| 20260503200432 | 64 | 195 | 9.6 | 13.0 | 0.00 | 0.01 | 0.01 | 45 | 1009.9 |
| 20260503195928 | 64 | 155 | 10.4 | 13.9 | 0.00 | 0.01 | 0.01 | 44 | 1009.9 |
| 20260503195426 | 64 | 206 | 13.9 | 20.9 | 0.00 | 0.01 | 0.01 | 45 | 1009.5 |
| 20260503194922 | 64 | 147 | 14.8 | 20.9 | 0.00 | 0.01 | 0.01 | 46 | 1009.9 |
| 20260503194419 | 63 | 172 | 9.6 | 13.0 | 0.00 | 0.01 | 0.01 | 48 | 1010.2 |
| 20260503193914 | 63 | 151 | 6.1 | 7.0 | 0.00 | 0.01 | 0.01 | 48 | 1010.2 |
| 20260503193410 | 62 | 188 | 10.4 | 13.9 | 0.00 | 0.01 | 0.01 | 47 | 1010.2 |
| 20260503192906 | 62 | 182 | 16.5 | 22.6 | 0.00 | 0.01 | 0.01 | 47 | 1010.2 |
| 20260503192402 | 62 | 166 | 9.6 | 15.6 | 0.00 | 0.01 | 0.01 | 49 | 1010.5 |
| 20260503191858 | 63 | 164 | 7.0 | 11.3 | 0.00 | 0.01 | 0.01 | 48 | 1010.2 |
| 20260503191356 | 63 | 200 | 9.6 | 11.3 | 0.00 | 0.01 | 0.01 | 48 | 1010.2 |
| 20260503190852 | 63 | 205 | 19.1 | 23.5 | 0.00 | 0.01 | 0.01 | 48 | 1010.5 |
| 20260503190349 | 63 | 179 | 8.7 | 14.8 | 0.00 | 0.01 | 0.01 | 51 | 1010.5 |
| 20260503185846 | 62 | 165 | 11.3 | 15.6 | 0.00 | 0.01 | 0.01 | 52 | 1010.9 |
| 20260503185343 | 62 | 203 | 14.8 | 22.6 | 0.00 | 0.01 | 0.01 | 52 | 1010.5 |
| 20260503184842 | 62 | 172 | 5.2 | 7.0 | 0.00 | 0.01 | 0.01 | 53 | 1011.2 |
| 20260503184339 | 61 | 187 | 13.0 | 15.6 | 0.00 | 0.01 | 0.01 | 52 | 1010.9 |
| 20260503183834 | 61 | 184 | 9.6 | 13.0 | 0.00 | 0.01 | 0.01 | 52 | 1011.2 |
| 20260503183332 | 62 | 176 | 13.9 | 17.4 | 0.00 | 0.01 | 0.01 | 50 | 1011.7 |
| 20260503182829 | 62 | 168 | 11.3 | 15.6 | 0.00 | 0.01 | 0.01 | 51 | 1011.7 |
| 20260503182329 | 61 | 162 | 11.3 | 15.6 | 0.00 | 0.01 | 0.01 | 51 | 1011.7 |
| 20260503181825 | 60 | 152 | 8.7 | 9.6 | 0.00 | 0.01 | 0.01 | 54 | 1012.0 |
| 20260503181322 | 59 | 159 | 12.2 | 15.6 | 0.00 | 0.01 | 0.01 | 55 | 1012.3 |
| 20260503180818 | 59 | 161 | 9.6 | 13.0 | 0.00 | 0.01 | 0.01 | 56 | 1012.0 |
| 20260503180317 | 58 | 183 | 5.2 | 6.1 | 0.00 | 0.01 | 0.01 | 58 | 1012.7 |
| 20260503175813 | 58 | 156 | 7.8 | 9.6 | 0.00 | 0.01 | 0.01 | 58 | 1012.7 |
| 20260503175311 | 58 | 187 | 6.1 | 11.3 | 0.00 | 0.01 | 0.01 | 58 | 1013.0 |
| 20260503174806 | 57 | 262 | 2.6 | 5.2 | 0.00 | 0.01 | 0.01 | 60 | 1013.3 |
| 20260503174304 | 56 | 182 | 7.0 | 11.3 | 0.00 | 0.01 | 0.01 | 61 | 1013.3 |
| 20260503173800 | 55 | 177 | 7.8 | 9.6 | 0.00 | 0.01 | 0.01 | 63 | 1013.3 |
| 20260503173255 | 55 | 147 | 6.1 | 7.0 | 0.00 | 0.01 | 0.01 | 67 | 1013.7 |
| 20260503172753 | 54 | 257 | 7.8 | 8.7 | 0.00 | 0.01 | 0.01 | 65 | 1013.7 |
| 20260503172250 | 54 | 182 | 6.1 | 7.8 | 0.00 | 0.01 | 0.01 | 71 | 1014.0 |
| 20260503171746 | 54 | 267 | 2.6 | 2.6 | 0.00 | 0.01 | 0.01 | 69 | 1014.0 |
| 20260503171243 | 54 | 158 | 4.3 | 6.1 | 0.00 | 0.01 | 0.01 | 68 | 1014.0 |
| 20260503170740 | 54 | 204 | 2.6 | 4.3 | 0.00 | 0.01 | 0.01 | 68 | 1014.0 |
| 20260503170237 | 54 | 184 | 2.6 | 2.6 | 0.00 | 0.01 | 0.01 | 67 | 1014.0 |
| 20260503160159 | 54 | 249 | 1.7 | 1.7 | 0.00 | 0.00 | 0.00 | 67 | 1015.0 |
| 20260503150629 | 55 | 221 | 9.6 | 13.0 | 0.00 | 0.00 | 0.00 | 62 | 1015.0 |
| 20260503150125 | 55 | 240 | 3.5 | 5.2 | 0.00 | 0.00 | 0.00 | 63 | 1014.7 |
| 20260503131019 | 51 | 211 | 1.7 | 1.7 | 0.00 | 0.00 | 0.00 | 66 | 1015.7 |
| 20260503130516 | 51 | 228 | 7.8 | 13.0 | 0.00 | 0.00 | 0.00 | 66 | 1015.7 |
| 20260503110413 | 44 | 146 | 2.6 | 4.3 | 0.00 | 0.00 | 0.00 | 70 | 1015.4 |
| 20260503090304 | 44 | 248 | 4.3 | 5.2 | 0.00 | 0.00 | 0.00 | 65 | 1015.7 |
| 20260503081231 | 45 | 248 | 3.5 | 5.2 | 0.00 | 0.00 | 0.00 | 62 | 1015.7 |
| 20260503080726 | 45 | 244 | 0.9 | 0.9 | 0.00 | 0.00 | 0.00 | 62 | 1016.1 |
| 20260503080224 | 45 | 247 | 1.7 | 2.6 | 0.00 | 0.00 | 0.00 | 62 | 1015.7 |
| 20260503072700 | 44 | 224 | 1.7 | 1.7 | 0.00 | 0.00 | 0.00 | 65 | 1016.1 |
| 20260503072157 | 44 | 220 | 2.6 | 2.6 | 0.00 | 0.00 | 0.00 | 66 | 1016.1 |
| 20260503071654 | 44 | 211 | 0.9 | 1.7 | 0.00 | 0.00 | 0.00 | 65 | 1016.1 |
| 20260503071151 | 44 | 220 | 0.9 | 0.9 | 0.00 | 0.00 | 0.00 | 65 | 1016.1 |
| 20260503070648 | 44 | 172 | 1.7 | 1.7 | 0.00 | 0.00 | 0.00 | 66 | 1016.1 |
| 20260503070146 | 44 | 211 | 0.0 | 0.9 | 0.00 | 0.00 | 0.00 | 66 | 1016.1 |
| 20260503060110 | 43 | 229 | 0.9 | 0.9 | 0.00 | 0.00 | 0.00 | 67 | 1016.8 |
| 20260503055101 | 43 | 228 | 0.9 | 0.9 | 0.00 | 0.00 | 0.00 | 68 | 1016.8 |
| 20260503054557 | 43 | 228 | 0.9 | 1.7 | 0.00 | 0.00 | 0.00 | 67 | 1016.8 |
| 20260503054054 | 43 | 227 | 0.9 | 0.9 | 0.00 | 0.00 | 0.00 | 67 | 1016.8 |
| 20260503053552 | 44 | 227 | 0.0 | 0.0 | 0.00 | 0.00 | 0.00 | 66 | 1016.8 |
| 20260503053050 | 44 | 227 | 0.0 | 0.0 | 0.00 | 0.00 | 0.00 | 65 | 1017.2 |
| 20260503052547 | 44 | 228 | 0.9 | 0.9 | 0.00 | 0.00 | 0.00 | 65 | 1017.2 |
| 20260503052043 | 44 | 226 | 0.9 | 0.9 | 0.00 | 0.00 | 0.00 | 64 | 1017.2 |
| 20260503051538 | 45 | 210 | 0.9 | 1.7 | 0.00 | 0.00 | 0.00 | 63 | 1017.2 |
| 20260503051036 | 45 | 211 | 0.9 | 0.9 | 0.00 | 0.00 | 0.00 | 63 | 1017.2 |
| 20260503050531 | 45 | 219 | 0.9 | 0.9 | 0.00 | 0.00 | 0.00 | 63 | 1017.2 |
| 20260503050030 | 45 | 219 | 0.9 | 0.9 | 0.00 | 0.00 | 0.00 | 62 | 1017.2 |
| 20260503045527 | 45 | 220 | 0.9 | 0.9 | 0.00 | 0.00 | 0.00 | 61 | 1016.8 |
| 20260503045024 | 45 | 208 | 1.7 | 1.7 | 0.00 | 0.00 | 0.00 | 61 | 1017.2 |
| 20260503044520 | 46 | 220 | 0.9 | 1.7 | 0.00 | 0.00 | 0.00 | 60 | 1016.8 |
| 20260503044018 | 46 | 219 | 0.9 | 1.7 | 0.00 | 0.00 | 0.00 | 61 | 1017.2 |
| 20260503043514 | 46 | 218 | 0.0 | 0.9 | 0.00 | 0.00 | 0.00 | 60 | 1016.8 |
| 20260503043010 | 46 | 215 | 0.0 | 0.9 | 0.00 | 0.00 | 0.00 | 59 | 1017.2 |
| 20260503042508 | 46 | 229 | 1.7 | 1.7 | 0.00 | 0.00 | 0.00 | 59 | 1017.2 |
| 20260503042004 | 46 | 210 | 0.9 | 0.9 | 0.00 | 0.00 | 0.00 | 59 | 1017.2 |
| 20260503041501 | 47 | 214 | 0.9 | 1.7 | 0.00 | 0.00 | 0.00 | 59 | 1017.2 |
| 20260503040959 | 46 | 208 | 2.6 | 4.3 | 0.00 | 0.00 | 0.00 | 59 | 1017.2 |
| 20260503040455 | 47 | 223 | 0.9 | 1.7 | 0.00 | 0.00 | 0.00 | 60 | 1017.2 |
| 20260503035952 | 46 | 219 | 1.7 | 1.7 | 0.00 | 0.00 | 0.00 | 60 | 1017.2 |
| 20260503035449 | 46 | 221 | 0.9 | 0.9 | 0.00 | 0.00 | 0.00 | 62 | 1017.2 |
| 20260503034947 | 46 | 223 | 0.9 | 1.7 | 0.00 | 0.00 | 0.00 | 62 | 1017.2 |
| 20260503034444 | 46 | 223 | 0.9 | 1.7 | 0.00 | 0.00 | 0.00 | 62 | 1017.5 |
| 20260503033941 | 46 | 223 | 0.9 | 0.9 | 0.00 | 0.00 | 0.00 | 61 | 1017.2 |
| 20260503033438 | 47 | 223 | 0.9 | 0.9 | 0.00 | 0.00 | 0.00 | 60 | 1017.2 |
| 20260503032936 | 47 | 223 | 2.6 | 2.6 | 0.00 | 0.00 | 0.00 | 59 | 1017.2 |
| 20260503032435 | 47 | 223 | 1.7 | 1.7 | 0.00 | 0.00 | 0.00 | 59 | 1017.2 |
| 20260503031932 | 48 | 223 | 0.0 | 0.9 | 0.00 | 0.00 | 0.00 | 58 | 1017.2 |
| 20260503031430 | 47 | 224 | 2.6 | 2.6 | 0.00 | 0.00 | 0.00 | 59 | 1017.5 |
| 20260503030926 | 48 | 224 | 0.9 | 0.9 | 0.00 | 0.00 | 0.00 | 58 | 1017.2 |
| 20260503030423 | 48 | 224 | 0.0 | 0.9 | 0.00 | 0.00 | 0.00 | 58 | 1017.2 |
| 20260503025920 | 48 | 224 | 0.9 | 0.9 | 0.00 | 0.00 | 0.00 | 58 | 1017.2 |
| 20260503025416 | 48 | 224 | 0.9 | 1.7 | 0.00 | 0.00 | 0.00 | 58 | 1017.2 |
| 20260503024914 | 48 | 224 | 0.9 | 0.9 | 0.00 | 0.00 | 0.00 | 59 | 1017.5 |
| 20260503024411 | 48 | 224 | 0.9 | 0.9 | 0.00 | 0.00 | 0.00 | 59 | 1017.2 |
| 20260503023908 | 48 | 224 | 0.9 | 0.9 | 0.00 | 0.00 | 0.00 | 59 | 1017.5 |
| 20260503023405 | 48 | 224 | 0.9 | 0.9 | 0.00 | 0.00 | 0.00 | 57 | 1017.2 |
| 20260503022902 | 49 | 225 | 0.9 | 1.7 | 0.00 | 0.00 | 0.00 | 57 | 1017.2 |
| 20260503022401 | 49 | 229 | 1.7 | 1.7 | 0.00 | 0.00 | 0.00 | 56 | 1017.5 |
| 20260503021858 | 49 | 230 | 0.9 | 1.7 | 0.00 | 0.00 | 0.00 | 56 | 1017.2 |
| 20260503021354 | 49 | 230 | 0.9 | 1.7 | 0.00 | 0.00 | 0.00 | 56 | 1017.5 |
| 20260503020852 | 49 | 230 | 0.9 | 0.9 | 0.00 | 0.00 | 0.00 | 55 | 1017.2 |
| 20260503020350 | 49 | 230 | 0.9 | 0.9 | 0.00 | 0.00 | 0.00 | 56 | 1017.2 |
| 20260503015846 | 49 | 230 | 0.9 | 0.9 | 0.00 | 0.00 | 0.00 | 56 | 1017.2 |
| 20260503015343 | 50 | 230 | 0.0 | 0.9 | 0.00 | 0.00 | 0.00 | 54 | 1017.2 |
| 20260503014838 | 50 | 230 | 0.9 | 0.9 | 0.00 | 0.00 | 0.00 | 54 | 1016.8 |
| 20260503014336 | 50 | 238 | 0.9 | 0.9 | 0.00 | 0.00 | 0.00 | 53 | 1017.2 |
| 20260503013834 | 50 | 238 | 0.9 | 0.9 | 0.00 | 0.00 | 0.00 | 54 | 1017.2 |
| 20260503013331 | 50 | 238 | 0.9 | 0.9 | 0.00 | 0.00 | 0.00 | 53 | 1017.2 |
| 20260503012828 | 50 | 238 | 0.9 | 0.9 | 0.00 | 0.00 | 0.00 | 53 | 1017.2 |
| 20260503012326 | 51 | 238 | 0.0 | 0.9 | 0.00 | 0.00 | 0.00 | 52 | 1016.8 |
| 20260503011822 | 51 | 238 | 0.9 | 0.9 | 0.00 | 0.00 | 0.00 | 52 | 1017.2 |
| 20260503011319 | 51 | 238 | 0.0 | 0.0 | 0.00 | 0.00 | 0.00 | 52 | 1017.2 |
| 20260503010815 | 51 | 238 | 0.0 | 0.0 | 0.00 | 0.00 | 0.00 | 51 | 1017.2 |
| 20260503010313 | 51 | 238 | 0.0 | 0.9 | 0.00 | 0.00 | 0.00 | 50 | 1017.2 |
| 20260503005809 | 52 | 238 | 0.0 | 0.9 | 0.00 | 0.00 | 0.00 | 49 | 1016.8 |
| 20260503005307 | 53 | 238 | 1.7 | 1.7 | 0.00 | 0.00 | 0.00 | 48 | 1016.8 |
| 20260503004803 | 53 | 238 | 1.7 | 1.7 | 0.00 | 0.00 | 0.00 | 48 | 1017.2 |
| 20260503004301 | 53 | 259 | 0.0 | 0.0 | 0.00 | 0.00 | 0.00 | 47 | 1017.2 |
| 20260503003758 | 53 | 258 | 0.9 | 0.9 | 0.00 | 0.00 | 0.00 | 46 | 1017.2 |
| 20260503003255 | 53 | 274 | 2.6 | 2.6 | 0.00 | 0.00 | 0.00 | 45 | 1017.2 |
| 20260503002751 | 53 | 269 | 1.7 | 1.7 | 0.00 | 0.00 | 0.00 | 44 | 1017.2 |
| 20260503002248 | 54 | 284 | 1.7 | 1.7 | 0.00 | 0.00 | 0.00 | 45 | 1016.8 |
| 20260503001744 | 54 | 274 | 3.5 | 4.3 | 0.00 | 0.00 | 0.00 | 44 | 1016.8 |
| 20260503001241 | 54 | 264 | 2.6 | 2.6 | 0.00 | 0.00 | 0.00 | 44 | 1017.2 |
| 20260503000739 | 55 | 268 | 2.6 | 2.6 | 0.00 | 0.00 | 0.00 | 44 | 1017.2 |
| 20260503000236 | 55 | 285 | 4.3 | 5.2 | 0.00 | 0.00 | 0.00 | 43 | 1016.8 |
| 20260502235733 | 55 | 273 | 3.5 | 4.3 | 0.00 | 0.00 | 0.00 | 43 | 1017.2 |
| 20260502235231 | 55 | 245 | 3.5 | 5.2 | 0.00 | 0.00 | 0.00 | 42 | 1016.8 |
| 20260502234727 | 55 | 257 | 6.1 | 7.0 | 0.00 | 0.00 | 0.00 | 43 | 1017.2 |
| 20260502234225 | 56 | 268 | 6.1 | 7.8 | 0.00 | 0.00 | 0.00 | 43 | 1017.2 |
| 20260502233720 | 56 | 275 | 2.6 | 5.2 | 0.00 | 0.00 | 0.00 | 43 | 1017.2 |
| 20260502233217 | 56 | 315 | 2.6 | 2.6 | 0.00 | 0.00 | 0.00 | 43 | 1017.2 |
| 20260502232712 | 55 | 295 | 6.1 | 7.0 | 0.00 | 0.00 | 0.00 | 43 | 1017.2 |
| 20260502232210 | 55 | 262 | 4.3 | 5.2 | 0.00 | 0.00 | 0.00 | 43 | 1017.2 |
| 20260502231707 | 56 | 276 | 4.3 | 6.1 | 0.00 | 0.00 | 0.00 | 42 | 1017.2 |
| 20260502231205 | 56 | 292 | 2.6 | 4.3 | 0.00 | 0.00 | 0.00 | 42 | 1017.2 |
| 20260502230703 | 55 | 292 | 5.2 | 7.0 | 0.00 | 0.00 | 0.00 | 42 | 1017.2 |
| 20260502230201 | 56 | 250 | 4.3 | 5.2 | 0.00 | 0.00 | 0.00 | 42 | 1017.2 |
| 20260502225656 | 55 | 258 | 2.6 | 4.3 | 0.00 | 0.00 | 0.00 | 42 | 1017.2 |
| 20260502225154 | 56 | 344 | 2.6 | 2.6 | 0.00 | 0.00 | 0.00 | 43 | 1017.2 |
| 20260502224650 | 55 | 330 | 4.3 | 5.2 | 0.00 | 0.00 | 0.00 | 43 | 1017.2 |
| 20260502224147 | 55 | 311 | 3.5 | 5.2 | 0.00 | 0.00 | 0.00 | 43 | 1017.5 |
| 20260502223645 | 55 | 287 | 0.9 | 1.7 | 0.00 | 0.00 | 0.00 | 43 | 1017.5 |
| 20260502223143 | 54 | 340 | 2.6 | 2.6 | 0.00 | 0.00 | 0.00 | 44 | 1017.2 |
| 20260502222640 | 54 | 320 | 1.7 | 1.7 | 0.00 | 0.00 | 0.00 | 44 | 1017.5 |
| 20260502222136 | 54 | 307 | 2.6 | 2.6 | 0.00 | 0.00 | 0.00 | 43 | 1017.5 |
| 20260502221632 | 54 | 313 | 2.6 | 2.6 | 0.00 | 0.00 | 0.00 | 43 | 1017.5 |
| 20260502221129 | 54 | 319 | 4.3 | 7.0 | 0.00 | 0.00 | 0.00 | 44 | 1017.5 |
| 20260502220626 | 54 | 324 | 4.3 | 5.2 | 0.00 | 0.00 | 0.00 | 43 | 1017.5 |
| 20260502220122 | 55 | 344 | 3.5 | 4.3 | 0.00 | 0.00 | 0.00 | 44 | 1017.5 |
| 20260502215619 | 55 | 316 | 2.6 | 4.3 | 0.00 | 0.00 | 0.00 | 44 | 1017.5 |
| 20260502215116 | 56 | 342 | 4.3 | 5.2 | 0.00 | 0.00 | 0.00 | 43 | 1017.8 |
| 20260502214613 | 56 | 257 | 3.5 | 6.1 | 0.00 | 0.00 | 0.00 | 41 | 1017.5 |
| 20260502214110 | 55 | 333 | 2.6 | 2.6 | 0.00 | 0.00 | 0.00 | 43 | 1017.5 |